| time (UTC) | temp C | wind direction | speed KPH | gust KPH | rain 1hr cm | rain 24hr cm | rain mn cm | humidity % | barometer mb |
| 20260504070317 | 31 | 293 | 6.4 | 11.3 | 0.00 | 0.00 | 0.00 | 57 | 1014.0 |
| 20260504050303 | 28 | 301 | 4.8 | 9.7 | 0.00 | 0.00 | 0.00 | 72 | 1015.0 |
| 20260504045803 | 28 | 296 | 3.2 | 6.4 | 0.00 | 0.00 | 0.00 | 72 | 1015.0 |
| 20260504045301 | 28 | 304 | 3.2 | 6.4 | 0.00 | 0.00 | 0.00 | 71 | 1015.0 |
| 20260504044802 | 28 | 283 | 3.2 | 8.0 | 0.00 | 0.00 | 0.00 | 71 | 1015.0 |
| 20260504044301 | 28 | 280 | 3.2 | 6.4 | 0.00 | 0.00 | 0.00 | 73 | 1015.0 |
| 20260504043802 | 28 | 291 | 6.4 | 9.7 | 0.00 | 0.00 | 0.00 | 73 | 1015.0 |
| 20260504043307 | 27 | 288 | 3.2 | 6.4 | 0.00 | 0.00 | 0.00 | 75 | 1015.0 |
| 20260504042801 | 27 | 271 | 3.2 | 4.8 | 0.00 | 0.00 | 0.00 | 75 | 1015.0 |
| 20260504042304 | 27 | 282 | 3.2 | 8.0 | 0.00 | 0.00 | 0.00 | 74 | 1015.0 |
| 20260504041804 | 27 | 312 | 1.6 | 4.8 | 0.00 | 0.00 | 0.00 | 76 | 1015.0 |
| 20260504041302 | 27 | 349 | 3.2 | 4.8 | 0.00 | 0.00 | 0.00 | 76 | 1015.0 |
| 20260504040801 | 27 | 318 | 3.2 | 4.8 | 0.00 | 0.00 | 0.00 | 78 | 1015.0 |
| 20260504040301 | 27 | 325 | 6.4 | 9.7 | 0.00 | 0.00 | 0.00 | 77 | 1015.0 |
| 20260504035802 | 27 | 221 | 3.2 | 8.0 | 0.00 | 0.00 | 0.00 | 78 | 1015.0 |
| 20260504035304 | 27 | 304 | 3.2 | 4.8 | 0.00 | 0.00 | 0.00 | 80 | 1015.0 |
| 20260504034801 | 27 | 285 | 3.2 | 6.4 | 0.00 | 0.00 | 0.00 | 79 | 1015.0 |
| 20260504034301 | 26 | 300 | 6.4 | 9.7 | 0.00 | 0.00 | 0.00 | 80 | 1015.0 |
| 20260504033802 | 26 | 314 | 4.8 | 9.7 | 0.00 | 0.00 | 0.00 | 81 | 1015.0 |
| 20260504033302 | 26 | 298 | 3.2 | 6.4 | 0.00 | 0.00 | 0.00 | 83 | 1015.0 |
| 20260504032803 | 26 | 302 | 9.7 | 14.5 | 0.00 | 0.00 | 0.00 | 82 | 1015.0 |
| 20260504032303 | 26 | 318 | 1.6 | 3.2 | 0.00 | 0.00 | 0.00 | 83 | 1015.0 |
| 20260504031802 | 26 | 307 | 3.2 | 6.4 | 0.00 | 0.00 | 0.00 | 82 | 1015.0 |
| 20260504031303 | 26 | 307 | 4.8 | 9.7 | 0.00 | 0.00 | 0.00 | 82 | 1015.0 |
| 20260504030802 | 26 | 299 | 1.6 | 3.2 | 0.00 | 0.00 | 0.00 | 82 | 1015.0 |
| 20260504030302 | 26 | 302 | 1.6 | 4.8 | 0.00 | 0.00 | 0.00 | 82 | 1015.0 |
| 20260504025801 | 25 | 310 | 4.8 | 8.0 | 0.00 | 0.00 | 0.00 | 81 | 1015.0 |
| 20260504025304 | 25 | 202 | 1.6 | 4.8 | 0.00 | 0.00 | 0.00 | 80 | 1015.0 |
| 20260504024804 | 25 | 319 | 3.2 | 4.8 | 0.00 | 0.00 | 0.00 | 80 | 1015.0 |
| 20260504024302 | 25 | 245 | 3.2 | 4.8 | 0.00 | 0.00 | 0.00 | 81 | 1014.0 |
| 20260504023802 | 25 | 285 | 3.2 | 4.8 | 0.00 | 0.00 | 0.00 | 82 | 1014.0 |
| 20260504023303 | 24 | 211 | 1.6 | 3.2 | 0.00 | 0.00 | 0.00 | 82 | 1014.0 |
| 20260504022802 | 24 | 222 | 1.6 | 3.2 | 0.00 | 0.00 | 0.00 | 82 | 1014.0 |
| 20260504022304 | 23 | 277 | 1.6 | 3.2 | 0.00 | 0.00 | 0.00 | 83 | 1014.0 |
| 20260504021801 | 23 | 184 | 3.2 | 6.4 | 0.00 | 0.00 | 0.00 | 84 | 1014.0 |
| 20260504021301 | 23 | 196 | 3.2 | 4.8 | 0.00 | 0.00 | 0.00 | 84 | 1014.0 |
| 20260504020802 | 23 | 23 | 1.6 | 3.2 | 0.00 | 0.00 | 0.00 | 86 | 1014.0 |
| 20260504020302 | 23 | 283 | 1.6 | 3.2 | 0.00 | 0.00 | 0.00 | 85 | 1014.0 |
| 20260504015801 | 22 | 223 | 3.2 | 6.4 | 0.00 | 0.00 | 0.00 | 85 | 1014.0 |
| 20260504015301 | 22 | 235 | 3.2 | 4.8 | 0.00 | 0.00 | 0.00 | 86 | 1014.0 |
| 20260504014807 | 22 | 234 | 1.6 | 4.8 | 0.00 | 0.00 | 0.00 | 88 | 1014.0 |
| 20260504014301 | 22 | 259 | 0.0 | 3.2 | 0.00 | 0.00 | 0.00 | 89 | 1014.0 |
| 20260504013802 | 22 | 219 | 4.8 | 6.4 | 0.00 | 0.00 | 0.00 | 90 | 1014.0 |
| 20260504013302 | 21 | 272 | 1.6 | 3.2 | 0.00 | 0.00 | 0.00 | 90 | 1014.0 |
| 20260504012802 | 21 | 236 | 3.2 | 6.4 | 0.00 | 0.00 | 0.00 | 90 | 1014.0 |
| 20260504012303 | 22 | 255 | 3.2 | 6.4 | 0.00 | 0.00 | 0.00 | 90 | 1014.0 |
| 20260504011801 | 22 | 245 | 1.6 | 3.2 | 0.00 | 0.00 | 0.00 | 90 | 1014.0 |
| 20260504011301 | 21 | 251 | 3.2 | 8.0 | 0.00 | 0.00 | 0.00 | 90 | 1014.0 |
| 20260504010802 | 21 | 260 | 1.6 | 3.2 | 0.00 | 0.00 | 0.00 | 90 | 1014.0 |
| 20260504010302 | 21 | 302 | 1.6 | 3.2 | 0.00 | 0.00 | 0.00 | 91 | 1014.0 |
| 20260504005801 | 21 | 243 | 0.0 | 1.6 | 0.00 | 0.00 | 0.00 | 91 | 1014.0 |
| 20260504005301 | 21 | 77 | 0.0 | 1.6 | 0.00 | 0.00 | 0.00 | 91 | 1014.0 |
| 20260504004803 | 21 | 256 | 1.6 | 4.8 | 0.00 | 0.00 | 0.00 | 92 | 1014.0 |
| 20260504004301 | 21 | 277 | 1.6 | 3.2 | 0.00 | 0.00 | 0.00 | 92 | 1014.0 |
| 20260504003801 | 21 | 246 | 3.2 | 4.8 | 0.00 | 0.00 | 0.00 | 93 | 1014.0 |
| 20260504003301 | 21 | 202 | 0.0 | 1.6 | 0.00 | 0.00 | 0.00 | 93 | 1014.0 |
| 20260504002802 | 21 | 263 | 3.2 | 4.8 | 0.00 | 0.00 | 0.00 | 92 | 1014.0 |
| 20260504002301 | 21 | 193 | 0.0 | 3.2 | 0.00 | 0.00 | 0.00 | 92 | 1014.0 |
| 20260504001802 | 21 | 56 | 3.2 | 3.2 | 0.00 | 0.00 | 0.00 | 91 | 1014.0 |
| 20260504001302 | 21 | 178 | 1.6 | 3.2 | 0.00 | 0.00 | 0.00 | 90 | 1014.0 |
| 20260504000802 | 21 | 67 | 1.6 | 3.2 | 0.00 | 0.00 | 0.00 | 89 | 1014.0 |
| 20260504000302 | 21 | 69 | 3.2 | 9.7 | 0.00 | 0.00 | 0.00 | 88 | 1014.0 |
| 20260503235801 | 21 | 174 | 1.6 | 3.2 | 0.00 | 0.00 | 0.00 | 88 | 1014.0 |
| 20260503235301 | 21 | 65 | 1.6 | 3.2 | 0.00 | 0.00 | 0.00 | 89 | 1014.0 |
| 20260503234802 | 21 | 294 | 3.2 | 4.8 | 0.00 | 0.00 | 0.00 | 89 | 1014.0 |
| 20260503234302 | 22 | 104 | 6.4 | 11.3 | 0.00 | 0.00 | 0.00 | 88 | 1014.0 |
| 20260503233801 | 24 | 76 | 6.4 | 12.9 | 0.00 | 0.00 | 0.00 | 83 | 1014.0 |
| 20260503233301 | 25 | 27 | 4.8 | 14.5 | 0.00 | 0.00 | 0.00 | 86 | 1014.0 |
| 20260503232801 | 25 | 109 | 0.0 | 3.2 | 0.00 | 0.00 | 0.00 | 86 | 1014.0 |
| 20260503232301 | 25 | 277 | 0.0 | 1.6 | 0.00 | 0.00 | 0.00 | 86 | 1013.0 |
| 20260503231801 | 25 | 229 | 3.2 | 6.4 | 0.00 | 0.00 | 0.00 | 86 | 1013.0 |
| 20260503231302 | 25 | 261 | 1.6 | 4.8 | 0.00 | 0.00 | 0.00 | 86 | 1013.0 |
| 20260503230801 | 25 | 193 | 3.2 | 4.8 | 0.00 | 0.00 | 0.00 | 86 | 1013.0 |
| 20260503230301 | 25 | 267 | 1.6 | 3.2 | 0.00 | 0.00 | 0.00 | 86 | 1013.0 |
| 20260503225802 | 25 | 228 | 1.6 | 4.8 | 0.00 | 0.00 | 0.00 | 86 | 1013.0 |
| 20260503225304 | 25 | 235 | 4.8 | 8.0 | 0.00 | 0.00 | 0.00 | 85 | 1013.0 |
| 20260503224801 | 25 | 233 | 0.0 | 1.6 | 0.00 | 0.00 | 0.00 | 86 | 1013.0 |
| 20260503224301 | 25 | 202 | 1.6 | 3.2 | 0.00 | 0.00 | 0.00 | 86 | 1013.0 |
| 20260503223802 | 25 | 245 | 3.2 | 4.8 | 0.00 | 0.00 | 0.00 | 86 | 1013.0 |
| 20260503223301 | 25 | 256 | 1.6 | 3.2 | 0.00 | 0.00 | 0.00 | 86 | 1013.0 |
| 20260503222802 | 25 | 259 | 1.6 | 3.2 | 0.00 | 0.00 | 0.00 | 87 | 1013.0 |
| 20260503222304 | 25 | 240 | 3.2 | 6.4 | 0.00 | 0.00 | 0.00 | 86 | 1013.0 |
| 20260503221802 | 25 | 248 | 0.0 | 3.2 | 0.00 | 0.00 | 0.00 | 86 | 1013.0 |
| 20260503221301 | 25 | 228 | 1.6 | 3.2 | 0.00 | 0.00 | 0.00 | 86 | 1013.0 |
| 20260503220802 | 25 | 229 | 3.2 | 4.8 | 0.00 | 0.00 | 0.00 | 86 | 1013.0 |
| 20260503220302 | 25 | 37 | 0.0 | 1.6 | 0.00 | 0.00 | 0.00 | 86 | 1013.0 |
| 20260503215802 | 25 | 229 | 1.6 | 3.2 | 0.00 | 0.00 | 0.00 | 86 | 1013.0 |
| 20260503215304 | 25 | 233 | 3.2 | 6.4 | 0.00 | 0.00 | 0.00 | 86 | 1012.0 |
| 20260503214801 | 25 | 263 | 3.2 | 4.8 | 0.00 | 0.00 | 0.00 | 86 | 1012.0 |
| 20260503214302 | 25 | 259 | 3.2 | 4.8 | 0.00 | 0.00 | 0.00 | 86 | 1012.0 |
| 20260503213801 | 25 | 359 | 0.0 | 3.2 | 0.00 | 0.00 | 0.00 | 86 | 1012.0 |
| 20260503213302 | 25 | 113 | 1.6 | 3.2 | 0.00 | 0.00 | 0.00 | 86 | 1012.0 |
| 20260503212802 | 25 | 231 | 3.2 | 6.4 | 0.00 | 0.00 | 0.00 | 86 | 1012.0 |
| 20260503212301 | 25 | 242 | 4.8 | 6.4 | 0.00 | 0.00 | 0.00 | 86 | 1012.0 |
| 20260503211802 | 25 | 258 | 1.6 | 4.8 | 0.00 | 0.00 | 0.00 | 85 | 1012.0 |
| 20260503211301 | 25 | 229 | 3.2 | 6.4 | 0.00 | 0.00 | 0.00 | 85 | 1012.0 |
| 20260503210801 | 25 | 221 | 3.2 | 6.4 | 0.00 | 0.00 | 0.00 | 85 | 1012.0 |
| 20260503210301 | 25 | 241 | 4.8 | 8.0 | 0.00 | 0.00 | 0.00 | 85 | 1012.0 |
| 20260503205801 | 25 | 230 | 3.2 | 6.4 | 0.00 | 0.00 | 0.00 | 85 | 1012.0 |
| 20260503205303 | 25 | 242 | 4.8 | 6.4 | 0.00 | 0.00 | 0.00 | 84 | 1012.0 |
| 20260503204802 | 25 | 235 | 6.4 | 11.3 | 0.00 | 0.00 | 0.00 | 84 | 1012.0 |
| 20260503204302 | 25 | 245 | 4.8 | 9.7 | 0.00 | 0.00 | 0.00 | 84 | 1012.0 |
| 20260503203802 | 26 | 237 | 3.2 | 8.0 | 0.00 | 0.00 | 0.00 | 84 | 1012.0 |
| 20260503203302 | 26 | 225 | 3.2 | 8.0 | 0.00 | 0.00 | 0.00 | 83 | 1012.0 |
| 20260503202806 | 26 | 262 | 4.8 | 11.3 | 0.00 | 0.00 | 0.00 | 83 | 1012.0 |
| 20260503202304 | 26 | 238 | 6.4 | 12.9 | 0.00 | 0.00 | 0.00 | 83 | 1012.0 |
| 20260503201801 | 26 | 256 | 3.2 | 6.4 | 0.00 | 0.00 | 0.00 | 82 | 1012.0 |
| 20260503201302 | 26 | 245 | 3.2 | 6.4 | 0.00 | 0.00 | 0.00 | 82 | 1012.0 |
| 20260503200802 | 26 | 241 | 3.2 | 6.4 | 0.00 | 0.00 | 0.00 | 82 | 1013.0 |
| 20260503200305 | 26 | 219 | 3.2 | 6.4 | 0.00 | 0.00 | 0.00 | 81 | 1013.0 |
| 20260503195802 | 26 | 246 | 3.2 | 6.4 | 0.00 | 0.00 | 0.00 | 81 | 1013.0 |
| 20260503195304 | 26 | 254 | 4.8 | 6.4 | 0.00 | 0.00 | 0.00 | 80 | 1013.0 |
| 20260503194802 | 26 | 239 | 4.8 | 9.7 | 0.00 | 0.00 | 0.00 | 80 | 1013.0 |
| 20260503194301 | 26 | 226 | 4.8 | 9.7 | 0.00 | 0.00 | 0.00 | 79 | 1013.0 |
| 20260503193803 | 26 | 212 | 3.2 | 8.0 | 0.00 | 0.00 | 0.00 | 79 | 1013.0 |
| 20260503193303 | 27 | 241 | 3.2 | 8.0 | 0.00 | 0.00 | 0.00 | 78 | 1013.0 |
| 20260503192802 | 27 | 214 | 4.8 | 8.0 | 0.00 | 0.00 | 0.00 | 77 | 1013.0 |
| 20260503192305 | 27 | 240 | 3.2 | 9.7 | 0.00 | 0.00 | 0.00 | 77 | 1013.0 |
| 20260503191802 | 27 | 226 | 3.2 | 11.3 | 0.00 | 0.00 | 0.00 | 77 | 1013.0 |
| 20260503191302 | 27 | 225 | 3.2 | 6.4 | 0.00 | 0.00 | 0.00 | 77 | 1013.0 |
| 20260503190801 | 27 | 257 | 3.2 | 6.4 | 0.00 | 0.00 | 0.00 | 76 | 1013.0 |
| 20260503190303 | 27 | 230 | 4.8 | 8.0 | 0.00 | 0.00 | 0.00 | 76 | 1014.0 |
| 20260503185802 | 27 | 263 | 3.2 | 4.8 | 0.00 | 0.00 | 0.00 | 75 | 1014.0 |
| 20260503185302 | 27 | 231 | 4.8 | 9.7 | 0.00 | 0.00 | 0.00 | 75 | 1014.0 |
| 20260503184802 | 27 | 236 | 3.2 | 4.8 | 0.00 | 0.00 | 0.00 | 73 | 1014.0 |
| 20260503184301 | 27 | 235 | 3.2 | 6.4 | 0.00 | 0.00 | 0.00 | 72 | 1014.0 |
| 20260503183803 | 27 | 249 | 0.0 | 4.8 | 0.00 | 0.00 | 0.00 | 68 | 1014.0 |
| 20260503183303 | 27 | 228 | 0.0 | 1.6 | 0.00 | 0.00 | 0.00 | 66 | 1014.0 |
| 20260503182804 | 27 | 74 | 0.0 | 1.6 | 0.00 | 0.00 | 0.00 | 65 | 1014.0 |
| 20260503182304 | 27 | 77 | 0.0 | 1.6 | 0.00 | 0.00 | 0.00 | 65 | 1014.0 |
| 20260503181801 | 27 | 160 | 1.6 | 3.2 | 0.00 | 0.00 | 0.00 | 65 | 1014.0 |
| 20260503181303 | 27 | 247 | 3.2 | 8.0 | 0.00 | 0.00 | 0.00 | 65 | 1014.0 |
| 20260503180801 | 27 | 265 | 1.6 | 3.2 | 0.00 | 0.00 | 0.00 | 65 | 1014.0 |
| 20260503180302 | 27 | 250 | 1.6 | 6.4 | 0.00 | 0.00 | 0.00 | 64 | 1014.0 |
| 20260503175801 | 28 | 242 | 4.8 | 12.9 | 0.00 | 0.00 | 0.00 | 64 | 1014.0 |
| 20260503175304 | 28 | 256 | 3.2 | 6.4 | 0.00 | 0.00 | 0.00 | 62 | 1014.0 |
| 20260503174802 | 28 | 79 | 1.6 | 3.2 | 0.00 | 0.00 | 0.00 | 61 | 1014.0 |
| 20260503174302 | 28 | 104 | 1.6 | 3.2 | 0.00 | 0.00 | 0.00 | 61 | 1014.0 |
| 20260503173802 | 28 | 186 | 1.6 | 3.2 | 0.00 | 0.00 | 0.00 | 60 | 1014.0 |
| 20260503173303 | 28 | 70 | 1.6 | 6.4 | 0.00 | 0.00 | 0.00 | 60 | 1014.0 |
| 20260503172802 | 28 | 235 | 3.2 | 8.0 | 0.00 | 0.00 | 0.00 | 59 | 1014.0 |
| 20260503172302 | 28 | 281 | 1.6 | 3.2 | 0.00 | 0.00 | 0.00 | 59 | 1014.0 |
| 20260503171802 | 28 | 288 | 1.6 | 3.2 | 0.00 | 0.00 | 0.00 | 59 | 1014.0 |
| 20260503171301 | 28 | 238 | 1.6 | 4.8 | 0.00 | 0.00 | 0.00 | 59 | 1014.0 |
| 20260503170801 | 28 | 263 | 1.6 | 4.8 | 0.00 | 0.00 | 0.00 | 59 | 1014.0 |
| 20260503170302 | 28 | 188 | 1.6 | 3.2 | 0.00 | 0.00 | 0.00 | 59 | 1014.0 |
| 20260503150802 | 30 | 0 | 0.0 | 0.0 | 0.00 | 0.00 | 0.00 | 52 | 1012.0 |
| 20260503150304 | 30 | 194 | 0.0 | 0.0 | 0.00 | 0.00 | 0.00 | 52 | 1012.0 |
| 20260503140303 | 31 | 157 | 0.0 | 1.6 | 0.00 | 0.00 | 0.00 | 50 | 1012.0 |
| 20260503131305 | 32 | 0 | 0.0 | 0.0 | 0.00 | 0.00 | 0.00 | 46 | 1011.0 |
| 20260503130802 | 32 | 0 | 0.0 | 0.0 | 0.00 | 0.00 | 0.00 | 46 | 1011.0 |
| 20260503130301 | 32 | 321 | 0.0 | 3.2 | 0.00 | 0.00 | 0.00 | 46 | 1011.0 |
| 20260503110801 | 33 | 322 | 3.2 | 6.4 | 0.00 | 0.00 | 0.00 | 45 | 1010.0 |
| 20260503110302 | 33 | 29 | 1.6 | 3.2 | 0.00 | 0.00 | 0.00 | 44 | 1010.0 |
| 20260503090304 | 35 | 346 | 4.8 | 11.3 | 0.00 | 0.00 | 0.00 | 42 | 1011.0 |
| 20260503081301 | 34 | 359 | 4.8 | 9.7 | 0.00 | 0.00 | 0.00 | 43 | 1012.0 |
| 20260503080801 | 34 | 52 | 4.8 | 8.0 | 0.00 | 0.00 | 0.00 | 42 | 1012.0 |
| 20260503080301 | 34 | 6 | 3.2 | 6.4 | 0.00 | 0.00 | 0.00 | 43 | 1012.0 |
| 20260503072803 | 33 | 296 | 3.2 | 4.8 | 0.00 | 0.00 | 0.00 | 44 | 1012.0 |
| 20260503072305 | 33 | 83 | 1.6 | 4.8 | 0.00 | 0.00 | 0.00 | 45 | 1012.0 |
| 20260503071804 | 33 | 342 | 4.8 | 8.0 | 0.00 | 0.00 | 0.00 | 45 | 1012.0 |
| 20260503071302 | 32 | 350 | 1.6 | 6.4 | 0.00 | 0.00 | 0.00 | 46 | 1012.0 |
| 20260503070803 | 32 | 16 | 3.2 | 6.4 | 0.00 | 0.00 | 0.00 | 46 | 1013.0 |